Tupelo, MS

5:49 AM CDT on August 20, 2017 (GMT -0500)
Tupelo Regional

Weather History for KTUP - July, 2013

Change the Weather History Date:

Sunday, July 21, 2013

  Actual Average Record
Temperature  
Mean Temperature 85 °F 82 °F  
Max Temperature 94 °F 92 °F 101 °F (1943)
Min Temperature 75 °F 71 °F 58 °F (1971)
Degree Days  
Heating Degree Days 0 0  
Month to date heating degree days 0 0  
Since 1 June heating degree days 0 0  
Since 1 July heating degree days 0 0  
Cooling Degree Days 20 17  
Month to date cooling degree days 326 346  
Year to date cooling degree days 988 1018  
Since 1 June cooling degree days 742 741  
Growing Degree Days 34 (Base 50)    
Moisture  
Dew Point 71 °F    
Average Humidity 69    
Maximum Humidity 94    
Minimum Humidity 44    
Precipitation  
Precipitation 0.00 in 0.11 in 1.93 in (1953)
Month to date precipitation 1.13 2.70  
Year to date precipitation 31.60 31.82  
Snow  
Snow 0.00 in 0.00 in - ()
Month to date snowfall 0.0 0.0  
Since 1 June snowfall 0.0 0.0  
Since 1 July snowfall 0.0 0.0  
Snow Depth 0.00 in    
Sea Level Pressure  
Sea Level Pressure 29.94 in    
Wind  
Wind Speed 6 mph (SW)    
Max Wind Speed 9 mph    
Max Gust Speed 12 mph    
Visibility 10 miles    
Events Thunderstorm    
T = Trace of Precipitation, MM = Missing Value Source: NWS Daily Summary

Daily Weather History Graph

Daily Weather History Graph

Search for Another Location

Airport or City:

Trip Planner

Search our weather history database for the weather conditions in past years. The results will help you decide how hot, cold, wet, or windy it might be!

Date:

Astronomy

Jul. 21, 2013 Rise Set
Actual Time 5:58 AM CDT 8:04 PM CDT
Civil Twilight 5:30 AM CDT 8:32 PM CDT
Nautical Twilight 4:55 AM CDT 9:06 PM CDT
Astronomical Twilight 4:18 AM CDT 9:43 PM CDT
Moon 7:04 PM CDT (7/21) 4:43 AM CDT (7/21)
Length of Visible Light 15h 02m
Length of Day
14h 05m
Waxing Gibbous, 98% of the Moon is Illuminated
Jul 21
Waxing Gibbous
Jul 22
Full
Jul 29
Last Quarter
Aug 6
New
Aug 14
First Quarter

Hourly Weather History & Observations

Time (CDT) Temp. Heat Index Dew Point Humidity Pressure Visibility Wind Dir Wind Speed Gust Speed Precip Events Conditions
12:53 AM 78.1 °F - 72.0 °F 81% 29.94 in 10.0 mi SSW 5.8 mph - N/A   Clear
1:53 AM 77.0 °F - 73.0 °F 88% 29.94 in 10.0 mi SSW 6.9 mph - N/A   Clear
2:53 AM 75.9 °F - 73.0 °F 91% 29.94 in 10.0 mi South 5.8 mph - N/A   Clear
3:53 AM 75.9 °F - 73.9 °F 94% 29.94 in 10.0 mi SSW 3.5 mph - N/A   Clear
4:53 AM 75.9 °F - 73.9 °F 94% 29.94 in 10.0 mi SW 6.9 mph - N/A   Clear
5:53 AM 75.0 °F - 73.0 °F 94% 29.96 in 10.0 mi Calm Calm - N/A   Clear
6:53 AM 75.9 °F - 73.0 °F 91% 29.98 in 10.0 mi Calm Calm - N/A   Clear
7:53 AM 79.0 °F - 72.0 °F 79% 29.99 in 10.0 mi WSW 5.8 mph - N/A   Clear
8:53 AM 82.0 °F 86.7 °F 72.0 °F 71% 29.99 in 10.0 mi West 5.8 mph - N/A   Clear
9:53 AM 84.9 °F 90.7 °F 72.0 °F 65% 29.98 in 10.0 mi West 5.8 mph - N/A   Clear
10:53 AM 88.0 °F 93.8 °F 71.1 °F 57% 29.99 in 10.0 mi West 8.1 mph - N/A   Clear
11:53 AM 89.1 °F 95.0 °F 71.1 °F 55% 29.98 in 10.0 mi West 8.1 mph - N/A   Scattered Clouds
12:53 PM 90.0 °F 96.4 °F 71.1 °F 54% 29.95 in 10.0 mi WNW 6.9 mph - N/A   Scattered Clouds
1:53 PM 91.9 °F 97.4 °F 70.0 °F 48% 29.93 in 10.0 mi West 9.2 mph - N/A   Clear
2:53 PM 91.9 °F 96.9 °F 69.1 °F 47% 29.91 in 10.0 mi West 8.1 mph 17.3 mph N/A   Scattered Clouds
3:53 PM 93.9 °F 98.6 °F 68.0 °F 43% 29.90 in 10.0 mi WSW 9.2 mph 17.3 mph N/A   Partly Cloudy
4:53 PM 91.9 °F 95.9 °F 68.0 °F 45% 29.90 in 10.0 mi West 8.1 mph 19.6 mph N/A   Partly Cloudy
5:53 PM 91.0 °F 95.6 °F 69.1 °F 48% 29.90 in 10.0 mi West 9.2 mph - N/A   Partly Cloudy
6:53 PM 89.1 °F 92.9 °F 68.0 °F 50% 29.91 in 10.0 mi West 5.8 mph - N/A   Clear
7:53 PM 84.0 °F 87.8 °F 69.1 °F 61% 29.91 in 10.0 mi SSW 3.5 mph - N/A   Clear
8:41 PM 80.6 °F 83.9 °F 69.8 °F 70% 29.94 in 10.0 mi South 6.9 mph - N/A Thunderstorm Thunderstorm
8:53 PM 81.0 °F 84.1 °F 69.1 °F 67% 29.93 in 10.0 mi SSW 8.1 mph - N/A   Clear
9:53 PM 79.0 °F - 69.1 °F 72% 29.95 in 10.0 mi South 6.9 mph - N/A   Clear
10:53 PM 79.0 °F - 69.1 °F 72% 29.95 in 10.0 mi South 6.9 mph - N/A   Partly Cloudy
11:53 PM 77.0 °F - 71.1 °F 82% 29.95 in 10.0 mi South 5.8 mph - N/A   Mostly Cloudy